EW5029 Weather Reports


Display with metric or nautical units.
time (UTC)temp
F
wind
direction
speed
MPH
gust
MPH
rain 1hr
in
rain 24hr
in
rain mn
in
humidity
%
barometer
mb
20260906003544 53 321 0.0 0.0 0.00 0.00 0.00 92 1026.8
20260906003047 53 321 0.0 0.0 0.00 0.00 0.00 92 1026.8
20260906002544 53 321 0.0 0.0 0.00 0.00 0.00 92 1026.8
20260906002044 54 321 0.0 0.0 0.00 0.00 0.00 92 1026.7
20260906001559 54 321 0.0 0.0 0.00 0.00 0.00 92 1026.5
20260906001043 54 321 0.0 0.0 0.00 0.00 0.00 92 1026.6
20260906000543 54 321 0.0 0.0 0.00 0.00 0.00 92 1026.7
20260906000042 54 321 0.0 0.0 0.00 0.00 0.00 92 1026.6
20260905235542 54 321 0.0 0.0 0.00 0.00 0.00 92 1026.8
20260905235043 54 321 0.0 0.0 0.00 0.00 0.00 91 1026.8
20260905234541 54 321 0.0 0.0 0.00 0.00 0.00 91 1026.9
20260905234041 54 321 0.0 0.0 0.00 0.00 0.00 91 1026.9
20260905233540 54 321 0.0 0.0 0.00 0.00 0.00 91 1026.9
20260905233041 54 321 0.0 0.0 0.00 0.00 0.00 91 1027.0
20260905232539 54 321 0.0 0.0 0.00 0.00 0.00 91 1027.0
20260905232039 54 321 0.0 0.0 0.00 0.00 0.00 91 1026.8
20260905231544 54 321 0.0 0.0 0.00 0.00 0.00 91 1026.8
20260905231039 54 321 0.0 0.0 0.00 0.00 0.00 91 1026.9
20260905230537 54 321 0.0 0.0 0.00 0.00 0.00 90 1026.8
20260905230039 54 321 0.0 0.0 0.00 0.00 0.00 90 1026.6
20260905225537 54 321 0.0 0.0 0.00 0.00 0.00 90 1026.6
20260905225036 54 321 0.0 0.0 0.00 0.00 0.00 90 1026.6
20260905224544 54 321 0.0 0.0 0.00 0.00 0.00 90 1026.6
20260905224036 54 321 0.0 0.0 0.00 0.00 0.00 90 1026.7
20260905223534 54 321 0.0 0.0 0.00 0.00 0.00 90 1026.6
20260905223039 55 321 0.0 0.0 0.00 0.00 0.00 89 1026.5
20260905222533 55 321 0.0 0.0 0.00 0.00 0.00 89 1026.6
20260905222034 55 321 0.0 0.0 0.00 0.00 0.00 89 1026.6
20260905221535 55 321 0.0 0.0 0.00 0.00 0.00 89 1026.6
20260905221034 55 321 0.0 0.0 0.00 0.00 0.00 89 1026.4
20260905220531 55 321 0.0 0.0 0.00 0.00 0.00 89 1026.4
20260905220030 55 321 0.0 0.0 0.00 0.00 0.00 89 1026.3
20260905215531 55 321 0.0 0.0 0.00 0.00 0.00 89 1026.3
20260905215029 55 321 0.0 0.0 0.00 0.00 0.00 88 1026.3
20260905214531 55 321 0.0 0.0 0.00 0.00 0.00 88 1026.2
20260905214028 55 321 0.0 0.0 0.00 0.00 0.00 88 1026.3
20260905213527 55 321 0.0 0.0 0.00 0.00 0.00 88 1026.3
20260905213029 55 321 0.0 0.0 0.00 0.00 0.00 87 1026.3
20260905212527 55 321 0.0 0.0 0.00 0.00 0.00 87 1026.4
20260905212026 55 321 0.0 0.0 0.00 0.00 0.00 87 1026.3
20260905211538 55 321 0.0 0.0 0.00 0.00 0.00 86 1026.3
20260905211025 56 321 0.0 0.0 0.00 0.00 0.00 86 1026.2
20260905210525 56 321 0.0 0.0 0.00 0.00 0.00 86 1026.3
20260905210024 56 321 0.0 0.0 0.00 0.00 0.00 85 1026.3
20260905205525 56 321 0.0 0.0 0.00 0.00 0.00 85 1026.2
20260905205023 56 321 0.0 0.0 0.00 0.00 0.00 85 1026.2
20260905204525 56 321 0.0 0.0 0.00 0.00 0.00 84 1026.2
20260905204022 56 321 0.0 0.0 0.00 0.00 0.00 84 1026.2
20260905203521 57 321 0.0 0.0 0.00 0.00 0.00 84 1026.2
20260905203034 57 321 0.0 0.0 0.00 0.00 0.00 84 1026.2
20260905202521 57 321 0.0 0.0 0.00 0.00 0.00 83 1026.1
20260905202018 57 321 0.0 0.0 0.00 0.00 0.00 82 1026.1
20260905201525 57 321 0.0 0.0 0.00 0.00 0.00 81 1026.0
20260905201016 58 321 0.0 0.0 0.00 0.00 0.00 81 1026.0
20260905200515 58 321 0.0 0.0 0.00 0.00 0.00 80 1026.0
20260905200014 58 321 0.0 0.0 0.00 0.00 0.00 80 1025.9
20260905195512 58 321 0.0 0.0 0.00 0.00 0.00 79 1025.9
20260905195012 59 321 0.0 0.0 0.00 0.00 0.00 78 1025.9
20260905194511 59 321 0.0 0.0 0.00 0.00 0.00 78 1025.9
20260905194010 59 321 0.0 0.0 0.00 0.00 0.00 77 1025.8
20260905193508 60 321 0.0 0.0 0.00 0.00 0.00 77 1025.8
20260905193010 60 321 0.0 0.0 0.00 0.00 0.00 77 1025.8
20260905192509 60 321 0.0 1.0 0.00 0.00 0.00 76 1025.8
20260905192005 60 321 0.0 2.0 0.00 0.00 0.00 76 1025.6
20260905191507 61 321 0.0 2.0 0.00 0.00 0.00 76 1025.6
20260905191006 61 321 0.0 3.0 0.00 0.00 0.00 76 1025.7
20260905190504 61 321 0.0 2.0 0.00 0.00 0.00 76 1025.6
20260905190004 61 325 0.0 2.0 0.00 0.00 0.00 75 1025.7
20260905185502 61 329 0.0 3.0 0.00 0.00 0.00 75 1025.7
20260905185003 61 316 0.0 4.0 0.00 0.00 0.00 75 1025.7
20260905184503 62 319 0.0 4.0 0.00 0.00 0.00 75 1025.7
20260905184003 62 302 0.0 3.0 0.00 0.00 0.00 74 1025.6
20260905183505 62 309 0.0 4.0 0.00 0.00 0.00 74 1025.6
20260905183000 62 317 1.0 5.0 0.00 0.00 0.00 74 1025.5
20260905182501 62 312 1.0 5.0 0.00 0.00 0.00 74 1025.5
20260905182102 62 299 1.0 5.0 0.00 0.00 0.00 73 1025.5
20260905181602 62 317 1.0 5.0 0.00 0.00 0.00 73 1025.4
20260905181100 63 340 1.0 12.0 0.00 0.00 0.00 73 1025.4
20260905180600 63 332 4.0 12.0 0.00 0.00 0.00 72 1025.4
20260905180103 63 333 1.0 7.0 0.00 0.00 0.00 73 1025.4
20260905175558 63 314 1.0 10.0 0.00 0.00 0.00 73 1025.3
20260905175100 64 324 2.0 10.0 0.00 0.00 0.00 73 1025.2
20260905174557 64 300 3.0 10.0 0.00 0.00 0.00 72 1025.2
20260905174101 64 294 3.0 11.0 0.00 0.00 0.00 72 1025.2
20260905173557 64 325 4.0 11.0 0.00 0.00 0.00 71 1025.2
20260905173056 64 168 2.0 6.0 0.00 0.00 0.00 71 1025.1
20260905172557 64 325 1.0 6.0 0.00 0.00 0.00 71 1025.1
20260905172056 64 313 2.0 10.0 0.00 0.00 0.00 70 1025.2
20260905171557 64 103 3.0 10.0 0.00 0.00 0.00 70 1025.2
20260905171054 64 321 2.0 8.0 0.00 0.00 0.00 71 1025.0
20260905170556 65 335 2.0 13.0 0.00 0.00 0.00 70 1025.0
20260905170105 65 318 5.0 12.0 0.00 0.00 0.00 70 1025.0
20260905165556 64 313 3.0 11.0 0.00 0.00 0.00 71 1025.0
20260905165054 64 327 5.0 11.0 0.00 0.00 0.00 71 1025.0
20260905164603 64 306 3.0 11.0 0.00 0.00 0.00 72 1025.0
20260905164053 64 304 1.0 10.0 0.00 0.00 0.00 72 1024.9
20260905163551 64 329 3.0 10.0 0.00 0.00 0.00 71 1024.8
20260905163051 64 307 3.0 10.0 0.00 0.00 0.00 72 1024.7
20260905162551 64 30 5.0 10.0 0.00 0.00 0.00 72 1024.7
20260905162049 64 27 3.0 16.0 0.00 0.00 0.00 72 1024.7
20260905161550 64 258 7.0 16.0 0.00 0.00 0.00 71 1024.6
20260905161050 64 302 3.0 11.0 0.00 0.00 0.00 72 1024.6
20260905160548 65 319 2.0 13.0 0.00 0.00 0.00 72 1024.6
20260905160048 65 57 5.0 13.0 0.00 0.00 0.00 71 1024.4
20260905155547 65 332 3.0 14.0 0.00 0.00 0.00 70 1024.3
20260905155046 65 37 4.0 14.0 0.00 0.00 0.00 69 1024.2
20260905154546 65 5 4.0 12.0 0.00 0.00 0.00 69 1024.2
20260905154046 65 312 5.0 12.0 0.00 0.00 0.00 68 1024.2
20260905153544 65 5 4.0 14.0 0.00 0.00 0.00 70 1024.1
20260905153044 65 5 4.0 14.0 0.00 0.00 0.00 69 1024.1
20260905152544 65 232 4.0 13.0 0.00 0.00 0.00 69 1024.0
20260905152046 66 300 6.0 13.0 0.00 0.00 0.00 67 1024.0
20260905151543 66 45 5.0 14.0 0.00 0.00 0.00 67 1024.0
20260905151041 66 317 4.0 14.0 0.00 0.00 0.00 66 1023.9
20260905150542 66 296 6.0 13.0 0.00 0.00 0.00 66 1023.9
20260905150046 65 360 6.0 20.0 0.00 0.00 0.00 67 1023.8
20260905145541 66 26 7.0 20.0 0.00 0.00 0.00 64 1023.8
20260905145040 66 304 8.0 17.0 0.00 0.00 0.00 64 1023.9
20260905144540 67 11 5.0 18.0 0.00 0.00 0.00 64 1023.8
20260905144040 66 321 7.0 20.0 0.00 0.00 0.00 66 1023.6
20260905143542 66 346 8.0 20.0 0.00 0.00 0.00 64 1023.6
20260905143038 66 295 5.0 14.0 0.00 0.00 0.00 68 1023.6
20260905142540 66 30 6.0 19.0 0.00 0.00 0.00 69 1023.5
20260905142037 67 252 6.0 20.0 0.00 0.00 0.00 68 1023.4
20260905141536 66 340 7.0 17.0 0.00 0.00 0.00 69 1023.3
20260905141035 66 271 3.0 17.0 0.00 0.00 0.00 69 1023.3
20260905140537 66 282 5.0 20.0 0.00 0.00 0.00 68 1023.2
20260905140038 66 298 8.0 20.0 0.00 0.00 0.00 67 1023.2
20260905135538 67 346 8.0 20.0 0.00 0.00 0.00 64 1023.2
20260905135033 68 298 5.0 17.0 0.00 0.00 0.00 66 1023.2
20260905134538 67 252 3.0 17.0 0.00 0.00 0.00 66 1023.1
20260905134032 67 43 5.0 15.0 0.00 0.00 0.00 67 1023.1
20260905133530 67 299 4.0 16.0 0.00 0.00 0.00 69 1023.0
20260905133029 66 319 6.0 18.0 0.00 0.00 0.00 69 1023.0
20260905132530 66 315 8.0 20.0 0.00 0.00 0.00 67 1022.9
20260905132029 67 11 8.0 20.0 0.00 0.00 0.00 66 1022.9
20260905131529 66 327 7.0 19.0 0.00 0.00 0.00 67 1022.8
20260905131029 66 19 7.0 16.0 0.00 0.00 0.00 70 1022.8
20260905130528 65 319 7.0 17.0 0.00 0.00 0.00 72 1022.8
20260905130036 65 317 7.0 17.0 0.00 0.00 0.00 73 1022.8
20260905125526 65 311 5.0 16.0 0.00 0.10 0.00 73 1022.7
20260905125028 65 324 7.0 18.0 0.00 0.10 0.00 74 1022.8
20260905124525 65 325 6.0 18.0 0.00 0.10 0.00 72 1022.8
20260905124025 65 329 7.0 20.0 0.00 0.10 0.00 73 1022.6
20260905123524 65 279 13.0 20.0 0.00 0.10 0.00 73 1022.7
20260905123024 65 305 5.0 21.0 0.00 0.10 0.00 74 1022.6
20260905122524 65 327 7.0 24.0 0.00 0.10 0.00 72 1022.5
20260905122023 66 26 7.0 22.0 0.00 0.10 0.00 72 1022.4
20260905121522 67 360 8.0 20.0 0.00 0.10 0.00 73 1022.3
20260905121026 66 287 7.0 19.0 0.00 0.10 0.00 73 1022.3
20260905120522 67 338 8.0 17.0 0.00 0.10 0.00 70 1022.2
20260905120022 67 285 5.0 13.0 0.00 0.10 0.00 73 1022.1
20260905115525 66 51 6.0 14.0 0.00 0.19 0.00 72 1022.1
20260905115022 66 316 7.0 21.0 0.00 0.19 0.00 73 1022.1
20260905114521 66 339 9.0 21.0 0.00 0.19 0.00 71 1022.1
20260905114020 66 360 8.0 21.0 0.00 0.19 0.00 74 1022.1
20260905113521 66 303 6.0 20.0 0.00 0.19 0.00 74 1022.0
20260905113019 66 60 6.0 17.0 0.00 0.19 0.00 72 1021.9
20260905112518 67 319 7.0 19.0 0.00 0.19 0.00 70 1021.9
20260905112018 67 318 5.0 19.0 0.00 0.19 0.00 74 1021.7
20260905111517 66 322 5.0 17.0 0.00 0.19 0.00 73 1021.7
20260905111016 66 35 5.0 23.0 0.00 0.19 0.00 73 1021.6
20260905110515 66 343 6.0 23.0 0.00 0.19 0.00 74 1021.5
20260905110015 66 317 8.0 19.0 0.00 0.19 0.00 73 1021.5
20260905105518 66 355 9.0 20.0 0.00 0.22 0.00 72 1021.5
20260905105014 66 303 4.0 14.0 0.00 0.22 0.00 74 1021.4
20260905104514 66 319 5.0 20.0 0.00 0.22 0.00 74 1021.4
20260905104016 66 333 4.0 20.0 0.00 0.22 0.00 74 1021.4
20260905103512 66 19 6.0 22.0 0.00 0.22 0.00 72 1021.4
20260905103013 66 318 5.0 22.0 0.00 0.22 0.00 74 1021.3
20260905102509 66 306 5.0 14.0 0.00 0.22 0.00 74 1021.2
20260905102008 66 313 5.0 20.0 0.00 0.22 0.00 75 1021.1
20260905101509 65 287 9.0 20.0 0.00 0.22 0.00 75 1021.1
20260905101006 65 341 7.0 17.0 0.00 0.22 0.00 75 1021.0
20260905100505 65 337 9.0 17.0 0.00 0.22 0.00 74 1021.0
20260905100007 65 355 5.0 17.0 0.00 0.22 0.00 75 1021.0
20260905095504 65 319 9.0 17.0 0.00 0.55 0.00 73 1020.9
20260905095003 65 318 8.0 15.0 0.00 0.55 0.00 75 1020.8
20260905094503 64 326 6.0 14.0 0.00 0.55 0.00 75 1020.7
20260905094001 64 336 6.0 16.0 0.00 0.55 0.00 74 1020.6
20260905093600 65 300 9.0 22.0 0.00 0.55 0.00 74 1020.6
20260905093059 65 5 9.0 22.0 0.00 0.55 0.00 74 1020.5
20260905092602 64 334 9.0 19.0 0.00 0.55 0.00 74 1020.5
20260905092057 64 317 5.0 19.0 0.00 0.55 0.00 75 1020.4
20260905091558 65 310 7.0 19.0 0.00 0.55 0.00 75 1020.4
20260905091056 65 325 7.0 17.0 0.00 0.55 0.00 75 1020.3
20260905090555 65 325 7.0 17.0 0.00 0.55 0.00 75 1020.2
20260905090121 64 338 7.0 17.0 0.00 0.55 0.00 75 1020.2
20260905085556 64 279 5.0 18.0 0.00 0.55 0.00 75 1020.1
20260905085056 64 53 6.0 15.0 0.00 0.55 0.00 75 1020.1
20260905084551 64 15 5.0 19.0 0.00 0.55 0.00 76 1019.9
20260905084051 64 320 8.0 20.0 0.00 0.55 0.00 75 1019.9
20260905083550 64 330 5.0 20.0 0.00 0.55 0.00 76 1019.8
20260905083048 64 325 8.0 17.0 0.00 0.55 0.00 75 1019.7
20260905082547 64 355 4.0 20.0 0.00 0.55 0.00 76 1019.6
20260905082048 64 329 4.0 13.0 0.00 0.55 0.00 76 1019.5
20260905081545 64 317 4.0 13.0 0.00 0.55 0.00 77 1019.4
20260905081044 64 345 5.0 17.0 0.00 0.55 0.00 77 1019.4
20260905080543 64 331 6.0 17.0 0.00 0.55 0.00 77 1019.4
20260905080043 64 315 6.0 17.0 0.00 0.55 0.00 77 1019.3
20260905075543 64 319 6.0 17.0 0.00 0.55 0.00 77 1019.2
20260905075043 63 299 5.0 17.0 0.00 0.55 0.00 77 1019.2
20260905074545 63 342 5.0 17.0 0.00 0.55 0.00 78 1019.0
20260905074041 63 306 5.0 20.0 0.00 0.55 0.00 79 1019.0
20260905073541 63 305 6.0 20.0 0.00 0.55 0.00 78 1018.8
20260905073043 63 344 7.0 15.0 0.00 0.55 0.00 79 1018.8
20260905072539 63 12 5.0 15.0 0.00 0.55 0.00 80 1018.7
20260905072037 63 290 5.0 18.0 0.00 0.55 0.00 80 1018.7
20260905071536 63 350 6.0 18.0 0.00 0.55 0.00 80 1018.6
20260905071037 63 5 5.0 18.0 0.00 0.55 0.00 80 1018.6
20260905070534 63 15 6.0 18.0 0.00 0.55 0.00 80 1018.5
20260905070044 63 284 4.0 16.0 0.00 0.55 0.00 81 1018.5
20260905065537 63 313 4.0 12.0 0.00 0.56 0.00 81 1018.5
20260905065033 63 46 4.0 14.0 0.00 0.56 0.00 81 1018.4
20260905064532 63 355 5.0 13.0 0.00 0.56 0.00 81 1018.2
20260905064032 62 19 5.0 10.0 0.00 0.56 0.00 82 1018.3
20260905063530 62 304 5.0 10.0 0.00 0.56 0.00 83 1018.3
20260905063030 63 319 4.0 14.0 0.00 0.56 0.00 83 1018.2
20260905062530 63 320 4.0 14.0 0.00 0.56 0.00 83 1018.1
20260905062029 63 317 3.0 10.0 0.00 0.56 0.00 83 1018.0
20260905061537 63 341 4.0 13.0 0.00 0.56 0.00 82 1018.0
20260905061028 63 319 4.0 13.0 0.00 0.56 0.00 83 1017.9
20260905060527 62 333 2.0 8.0 0.00 0.56 0.00 84 1017.9
20260905060026 62 306 2.0 8.0 0.00 0.56 0.00 84 1017.7
20260905055527 62 105 0.0 10.0 0.00 0.56 0.00 84 1017.8
20260905055029 61 333 2.0 10.0 0.00 0.56 0.00 84 1017.8
20260905054530 61 314 0.0 6.0 0.00 0.56 0.00 84 1017.7
20260905054022 61 5 0.0 6.0 0.00 0.56 0.00 84 1017.6
20260905053523 61 322 1.0 6.0 0.00 0.56 0.00 84 1017.6
20260905053022 61 312 1.0 6.0 0.00 0.56 0.00 84 1017.5
20260905052519 61 311 1.0 6.0 0.00 0.56 0.00 84 1017.5
20260905052020 61 59 2.0 5.0 0.00 0.56 0.00 84 1017.4
20260905051520 61 341 0.0 3.0 0.00 0.56 0.00 84 1017.4
20260905051017 61 321 1.0 6.0 0.00 0.56 0.00 84 1017.4
20260905050517 61 329 2.0 10.0 0.00 0.56 0.00 83 1017.2
20260905050016 61 316 3.0 10.0 0.00 0.56 0.00 83 1017.2
20260905045514 61 307 1.0 10.0 0.00 0.56 0.00 83 1017.2
20260905045014 61 327 4.0 10.0 0.00 0.56 0.00 83 1017.0
20260905044519 61 233 2.0 6.0 0.00 0.56 0.00 84 1017.0
20260905044014 61 344 2.0 11.0 0.00 0.56 0.00 84 1017.0
20260905043513 61 254 1.0 8.0 0.00 0.56 0.00 84 1017.0
20260905043013 61 313 2.0 6.0 0.00 0.56 0.00 84 1017.0
20260905042512 61 305 1.0 6.0 0.00 0.56 0.00 84 1017.0
20260905042012 61 342 0.0 5.0 0.00 0.56 0.00 83 1017.0
20260905041513 61 290 1.0 8.0 0.00 0.56 0.00 83 1017.0
20260905041010 61 322 2.0 8.0 0.00 0.56 0.00 83 1017.0
20260905040510 62 311 3.0 10.0 0.00 0.56 0.00 83 1017.0
20260905040010 61 328 3.0 11.0 0.00 0.56 0.00 83 1016.8
20260905035511 62 305 2.0 11.0 0.00 0.56 0.00 83 1016.8
20260905035111 62 315 2.0 9.0 0.00 0.56 0.00 82 1016.9
20260905034509 62 321 3.0 10.0 0.00 0.56 0.00 82 1016.8
20260905034008 62 324 3.0 14.0 0.00 0.56 0.00 81 1016.7
20260905033507 62 240 4.0 11.0 0.00 0.56 0.00 82 1016.7
20260905033008 61 344 3.0 11.0 0.00 0.56 0.00 82 1016.7
20260905032507 61 322 1.0 10.0 0.00 0.56 0.00 82 1016.7
20260905032010 61 307 3.0 10.0 0.00 0.56 0.00 82 1016.6
20260905031506 61 329 2.0 9.0 0.00 0.56 0.00 81 1016.6
20260905031006 61 340 2.0 12.0 0.00 0.56 0.00 81 1016.6
20260905030505 61 335 2.0 12.0 0.00 0.56 0.00 81 1016.6
20260905030010 61 294 3.0 11.0 0.00 0.56 0.00 81 1016.5
20260905025504 61 237 1.0 5.0 0.00 0.56 0.00 81 1016.5
20260905025107 61 328 1.0 5.0 0.00 0.56 0.00 81 1016.5
20260905024503 61 305 1.0 5.0 0.00 0.56 0.00 81 1016.5
20260905024002 61 317 1.0 11.0 0.00 0.56 0.00 81 1016.4
20260905023501 61 331 2.0 11.0 0.00 0.56 0.00 81 1016.4
20260905023101 61 349 0.0 6.0 0.00 0.56 0.00 80 1016.3
20260905023001 61 323 1.0 6.0 0.00 0.56 0.00 80 1016.3
20260905022600 61 350 1.0 6.0 0.00 0.56 0.00 80 1016.3
20260905022100 61 349 2.0 6.0 0.00 0.56 0.00 80 1016.3
20260905021559 61 342 1.0 9.0 0.00 0.56 0.00 80 1016.2
20260905021058 61 229 2.0 9.0 0.00 0.56 0.00 79 1016.2
20260905020558 61 348 2.0 6.0 0.00 0.56 0.00 79 1016.3
20260905020058 61 307 1.0 8.0 0.00 0.56 0.00 79 1016.2
20260905015558 61 341 2.0 10.0 0.00 0.56 0.00 79 1016.3
20260905015200 61 325 2.0 10.0 0.00 0.56 0.00 79 1016.2
20260905014557 62 339 2.0 9.0 0.00 0.56 0.00 79 1016.2
20260905014100 62 310 2.0 6.0 0.00 0.56 0.00 78 1016.0
20260905013554 62 327 1.0 6.0 0.00 0.56 0.00 77 1016.0
20260905013112 62 304 2.0 11.0 0.00 0.56 0.00 77 1016.0
20260905012553 62 14 3.0 11.0 0.00 0.56 0.00 77 1016.0
20260905012052 62 9 3.0 11.0 0.00 0.56 0.00 76 1016.0
20260905011555 62 315 2.0 11.0 0.00 0.56 0.00 76 1016.0
20260905011052 62 24 3.0 10.0 0.00 0.56 0.00 77 1016.0
20260905010551 62 14 3.0 8.0 0.00 0.56 0.00 77 1016.1
20260905010051 62 337 2.0 8.0 0.00 0.56 0.00 76 1016.1
20260905005553 62 315 2.0 8.0 0.00 0.56 0.00 76 1016.1
20260905005049 62 310 2.0 8.0 0.00 0.56 0.00 75 1016.0
20260905004623 62 314 3.0 9.0 0.00 0.56 0.00 75 1016.0
20260905004048 63 337 3.0 16.0 0.00 0.56 0.00 75 1015.9